De Queen, AR

4:55 PM CDT on August 16, 2017 (GMT -0500)
Helms Sevier County

Weather History for KDEQ - October, 2011

Change the Weather History Date:

Tuesday, October 25, 2011

  Actual Average Record
Temperature  
Mean Temperature 66 °F 61 °F  
Max Temperature 83 °F 74 °F 88 °F (1940)
Min Temperature 48 °F 48 °F 28 °F (1980)
Degree Days  
Heating Degree Days 0 6  
Month to date heating degree days 79 85  
Since 1 July heating degree days 83 94  
Cooling Degree Days 1 2  
Month to date cooling degree days 53 64  
Year to date cooling degree days 2490 1929  
Growing Degree Days 15 (Base 50)    
Moisture  
Dew Point 54 °F    
Average Humidity 73    
Maximum Humidity 100    
Minimum Humidity 46    
Precipitation  
Precipitation 0.00 in 0.14 in 4.36 in (1984)
Month to date precipitation 1.94 3.73  
Year to date precipitation 27.71 38.93  
Snow  
Snow 0.00 in - - ()
Month to date snowfall 0.0  
Since 1 July snowfall 0.0  
Since 1 September snowfall 0.0  
Snow Depth 0.00 in    
Sea Level Pressure  
Sea Level Pressure 30.07 in    
Wind  
Wind Speed 4 mph (ESE)    
Max Wind Speed 17 mph    
Max Gust Speed 24 mph    
Visibility 6 miles    
Events Fog    
T = Trace of Precipitation, MM = Missing Value Source: NWS Daily Summary

Daily Weather History Graph

Daily Weather History Graph

Search for Another Location

Airport or City:

Trip Planner

Search our weather history database for the weather conditions in past years. The results will help you decide how hot, cold, wet, or windy it might be!

Date:

Astronomy

Oct. 25, 2011 Rise Set
Actual Time 7:30 AM CDT 6:32 PM CDT
Civil Twilight 7:05 AM CDT 6:57 PM CDT
Nautical Twilight 6:35 AM CDT 7:26 PM CDT
Astronomical Twilight 6:06 AM CDT 7:55 PM CDT
Moon 6:05 AM CDT (10/25) 5:34 PM CDT (10/25)
Length of Visible Light 11h 52m
Length of Day
11h 01m
Waning Crescent, 2% of the Moon is Illuminated
Oct 25
Waning Crescent
Oct 26
New
Nov 2
First Quarter
Nov 10
Full
Nov 18
Last Quarter

Hourly Weather History & Observations

Time (CDT) Temp. Heat Index Dew Point Humidity Pressure Visibility Wind Dir Wind Speed Gust Speed Precip Events Conditions
12:22 AM 51.8 °F - 51.8 °F 100% 30.14 in 1.2 mi Calm Calm - N/A   Partly Cloudy
12:25 AM 51.8 °F - 51.8 °F 100% 30.14 in 3.0 mi Calm Calm - N/A   Partly Cloudy
12:44 AM 51.8 °F - 51.8 °F 100% 30.14 in 1.5 mi Calm Calm - N/A   Clear
12:53 AM 51.1 °F - 51.1 °F 100% 30.13 in 0.5 mi Calm Calm - N/A Fog Fog
1:48 AM 48.2 °F - 48.2 °F 100% 30.14 in 1.5 mi Calm Calm - N/A   Partly Cloudy
1:58 AM 48.2 °F - 48.2 °F 100% 30.14 in 0.8 mi Calm Calm - N/A   Mist
2:49 AM 48.2 °F - 48.2 °F 100% 30.14 in 1.0 mi Calm Calm - N/A   Clear
2:53 AM 48.9 °F - 48.9 °F 100% 30.13 in 1.2 mi Calm Calm - N/A   Partly Cloudy
3:43 AM 48.2 °F - 48.2 °F 100% 30.13 in 1.2 mi NE 3.5 mph - N/A   Partly Cloudy
3:48 AM 48.2 °F - 48.2 °F 100% 30.13 in 3.0 mi NE 3.5 mph - N/A   Partly Cloudy
3:53 AM 48.9 °F - 48.0 °F 97% 30.12 in 3.0 mi ENE 3.5 mph - N/A   Clear
4:53 AM 48.9 °F - 48.0 °F 97% 30.11 in 7.0 mi NE 3.5 mph - N/A   Clear
5:53 AM 48.9 °F - 48.9 °F 100% 30.11 in 6.0 mi Calm Calm - N/A   Clear
6:53 AM 50.0 °F - 48.9 °F 96% 30.12 in 9.0 mi Variable 4.6 mph - N/A   Clear
7:53 AM 54.0 °F - 51.1 °F 90% 30.12 in 10.0 mi NE 3.5 mph - N/A   Clear
8:53 AM 57.9 °F - 53.1 °F 84% 30.13 in 10.0 mi NNE 5.8 mph - N/A   Clear
9:53 AM 64.0 °F - 54.0 °F 70% 30.13 in 10.0 mi Variable 3.5 mph - N/A   Clear
10:53 AM 69.1 °F - 57.9 °F 68% 30.11 in 10.0 mi Calm Calm - N/A   Partly Cloudy
11:53 AM 75.9 °F - 61.0 °F 60% 30.07 in 10.0 mi SE 3.5 mph - N/A   Clear
12:53 PM 80.1 °F 81.2 °F 62.1 °F 54% 30.04 in 10.0 mi SSE 8.1 mph - N/A   Clear
1:53 PM 82.0 °F 83.0 °F 62.1 °F 51% 30.01 in 10.0 mi South 10.4 mph 17.3 mph N/A   Clear
2:53 PM 82.9 °F 83.3 °F 61.0 °F 47% 29.97 in 10.0 mi South 10.4 mph 19.6 mph N/A   Clear
4:53 PM 81.0 °F 81.3 °F 59.0 °F 47% 29.94 in 10.0 mi South 8.1 mph - N/A   Clear
5:53 PM 80.1 °F 80.9 °F 60.1 °F 50% 29.93 in 10.0 mi South 5.8 mph - N/A   Clear
6:53 PM 75.9 °F - 60.1 °F 58% 29.93 in 10.0 mi SSE 3.5 mph - N/A   Clear
8:53 PM 73.0 °F - 60.1 °F 64% 29.93 in 10.0 mi SE 4.6 mph - N/A   Clear
9:53 PM 64.0 °F - 60.1 °F 87% 29.94 in 10.0 mi Calm Calm - N/A   Clear
10:53 PM 61.0 °F - 59.0 °F 93% 29.95 in 10.0 mi Calm Calm - N/A   Clear
11:53 PM 60.1 °F - 59.0 °F 96% 29.94 in 8.0 mi Calm Calm - N/A   Clear